Regional Weather Roundup
Issued by NWS

Home | Current Version | Previous Version | Graphics & Text | Print | Product List | Glossary On
Versions: 1 2 3 4 5 6 7 8 9 10 11 12 13 14 15 16 17 18 19 20 21 22 23 24 25 26 27 28 29 30 31 32 33 34 35 36 37 38 39 40 41 42 43 44 45 46 47 48 49 50
000
ASUS43 KBIS 020810
RWRND

NORTH DAKOTA REGIONAL WEATHER ROUNDUP
NATIONAL WEATHER SERVICE BISMARCK ND
200 AM CST FRI DEC 02 2016

NOTE: "FAIR" INDICATES FEW OR NO CLOUDS BELOW 12,000 FEET WITH NO
SIGNIFICANT WEATHER AND/OR OBSTRUCTIONS TO VISIBILITY.


NDZ001>003-009>011-017-020900-
NORTHWEST NORTH DAKOTA

CITY           SKY/WX    TMP DP  RH WIND       PRES   REMARKS
WILLISTON      CLOUDY    28  23  81 SE6       30.11R
MINOT          CLOUDY    28  22  78 CALM      30.14R
MINOT AFB      CLOUDY    26  20  78 SW5       30.13R
$$

NDZ018>021-031>035-040>046-020900-
SOUTHWEST NORTH DAKOTA

CITY           SKY/WX    TMP DP  RH WIND       PRES   REMARKS
BISMARCK       CLOUDY    26  24  92 NE5       30.15R
DICKINSON      CLOUDY    24  21  88 S5        30.07R WCI  18
GARRISON         N/A     26  21  81 CALM      30.13R
HETTINGER ARPT CLOUDY    24  20  84 CALM      30.10R
$$

NDZ004>008-012>016-024-026-027-054-020900-
NORTHEAST NORTH DAKOTA

CITY           SKY/WX    TMP DP  RH WIND       PRES   REMARKS
GRAND FORKS    CLOUDY    29  22  75 N15       30.15R WCI  18
GRND FRKS AFB  CLOUDY    28  22  79 N12       30.15R WCI  18
DEVILS LAKE    CLOUDY    27  22  81 N9        30.15R WCI  18
$$

NDZ022-023-025-028>030-036>039-047>053-020900-
SOUTHEAST NORTH DAKOTA

CITY           SKY/WX    TMP DP  RH WIND       PRES   REMARKS
FARGO          CLOUDY    29  23  78 N13       30.14R WCI  19
JAMESTOWN      CLOUDY    27  22  81 N9        30.13R WCI  18
$$





USA.gov is the U.S. government's official web portal to all federal, state and local government web resources and services.